This demonstration page uses our WeatherBlox Daily Observations layout. Learn more.

Left ArrowRight Arrow

31.84235, -102.49876

Hourly Observations for March 28, 2018

Temp ( °F °C ) Dew Point ( °F °C ) Humidity (%) Winds ( mph kmh ) Pressure ( in mb ) Visibility ( mi km ) Precip ( " mm )
12:00 am 00:00 Cloudy with Light Rain 48 8.9 45 7.2 89 89 NE 21 33 30.00 1016 10 16 0.01 0.25
12:53 am 00:53 Cloudy with Light Rain 48 8.9 46 7.8 93 93 NE 15 24 29.91 1013 10 16 0.01 0.25
1:05 am 01:05 Cloudy 48 8.9 46 7.8 93 93 NNE 12 19 30.00 1016 10 16 0.00 0.03
1:19 am 01:19 Cloudy with Light Rain 48 8.9 46 7.8 93 93 ENE 17 28 29.97 1015 10 16 0.00 0.03
1:26 am 01:26 Cloudy with Light Rain 48 8.9 46 7.8 93 93 NE 17 28 29.97 1015 10 16 0.00 0.03
1:38 am 01:38 Cloudy with Nearby Thunderstorms 48 8.9 46 7.8 93 93 ENE 9 15 29.97 1015 10 16 0.00 0.03
1:53 am 01:53 Cloudy with Nearby Thunderstorms 47 8.3 45 7.2 93 93 NE 14 22 29.89 1012 6 10 0.06 1.52
2:12 am 02:12 Cloudy with Light Rain 47 8.3 45 7.2 93 93 NE 12 19 29.97 1015 10 16 0.01 0.25
2:53 am 02:53 Mostly Cloudy 45 7.2 44 6.7 97 97 NE 12 19 29.89 1012 10 16 0.01 0.25
3:35 am 03:35 Cloudy 46 7.8 45 7.2 96 96 NE 7 11 29.94 1014 10 16 0.00 0.00
3:53 am 03:53 Cloudy 46 7.8 45 7.2 96 96 NNE 6 9 29.87 1012 10 16 0.00 0.00
4:04 am 04:04 Cloudy 46 7.8 45 7.2 96 96 N 5 7 29.94 1014 10 16 0.00 0.00
4:53 am 04:53 Cloudy 46 7.8 45 7.2 96 96 N 5 7 29.86 1011 10 16 0.00 0.00
5:53 am 05:53 Cloudy 47 8.3 46 7.8 97 97 NNW 7 11 29.89 1012 8 13 0.00 0.00
6:24 am 06:24 Cloudy 48 8.9 47 8.3 96 96 NNW 7 11 29.97 1015 10 16 0.00 0.00
6:53 am 06:53 Cloudy 49 9.4 48 8.9 97 97 NNW 5 7 29.91 1013 10 16 0.00 0.00
6:57 am 06:57 Cloudy 49 9.4 48 8.9 97 97 NNW 7 11 29.97 1015 10 16 0.00 0.00
7:10 am 07:10 Cloudy with Mist and Fog 48 8.9 47 8.3 96 96 N 9 15 30.00 1016 6 10 0.00 0.00
7:53 am 07:53 Cloudy with Mist and Fog 47 8.3 46 7.8 97 97 N 8 13 29.93 1013 4 6 0.00 0.00
8:21 am 08:21 Cloudy with Mist and Fog 47 8.3 46 7.8 97 97 N 6 9 30.00 1016 3 4 0.00 0.00
8:33 am 08:33 Cloudy with Mist and Fog 47 8.3 46 7.8 97 97 N 5 7 30.00 1016 4 6 0.00 0.00
8:53 am 08:53 Cloudy with Mist and Fog 48 8.9 46 7.8 93 93 NNE 3 6 29.95 1014 3 5 0.00 0.00
9:09 am 09:09 Cloudy with Mist and Fog 48 8.9 46 7.8 93 93 NNE 5 7 30.00 1016 3 4 0.00 0.00
9:32 am 09:32 Cloudy with Mist and Fog 48 8.9 47 8.3 96 96 NNE 6 9 30.00 1016 3 5 0.00 0.00
9:53 am 09:53 Cloudy with Mist and Fog 49 9.4 46 7.8 90 90 N 6 9 29.96 1015 4 6 0.00 0.00
10:53 am 10:53 Cloudy with Mist and Fog 49 9.4 47 8.3 93 93 N 5 7 29.95 1014 5 8 0.00 0.00
11:36 am 11:36 Cloudy 53 11.7 48 8.9 83 83 WNW 5 7 29.97 1015 10 16 0.00 0.00
11:44 am 11:44 Cloudy 52 11.1 47 8.3 83 83 VRB 3 6 29.97 1015 10 16 0.00 0.00
11:53 am 11:53 Cloudy 53 11.7 47 8.3 80 80 W 5 7 29.93 1014 10 16 0.00 0.00
12:45 pm 12:45 Cloudy 55 12.8 47 8.3 74 74 W 7 11 29.94 1014 10 16 0.00 0.00
12:53 pm 12:53 Cloudy 55 12.8 47 8.3 74 74 W 8 13 29.91 1013 10 16 0.00 0.00
1:53 pm 13:53 Cloudy 56 13.3 47 8.3 72 72 WSW 5 7 29.88 1012 10 16 0.00 0.00
2:24 pm 14:24 Partly Cloudy 58 14.4 47 8.3 67 67 VRB 3 6 29.85 1011 10 16 0.00 0.00
2:53 pm 14:53 Sunny 60 15.6 46 7.8 60 60 VRB 6 9 29.83 1010 10 16 0.00 0.00
3:53 pm 15:53 Sunny 66 18.9 34 1.1 30 30 W 15 24 29.79 1009 10 16 0.00 0.00
4:15 pm 16:15 Mostly Sunny 64 17.8 32 0 30 30 W 16 26 29.74 1007 10 16 0.00 0.00
4:53 pm 16:53 Partly Cloudy 66 18.9 32 0 28 28 W 14 22 29.77 1008 10 16 0.00 0.00
5:53 pm 17:53 Sunny 67 19.4 31 -0.6 26 26 W 21 33 29.75 1008 10 16 0.00 0.00
6:53 pm 18:53 Sunny 67 19.4 25 -3.9 20 20 W 22 35 29.75 1008 10 16 0.00 0.00
7:53 pm 19:53 Sunny 64 17.8 26 -3.3 24 24 WSW 13 20 29.76 1008 10 16 0.00 0.00
8:53 pm 20:53 Clear 60 15.6 28 -2.2 30 30 WSW 10 17 29.78 1008 10 16 0.00 0.00
9:53 pm 21:53 Clear 59 15 28 -2.2 31 31 WSW 10 17 29.79 1009 10 16 0.00 0.00
10:53 pm 22:53 Clear 58 14.4 28 -2.2 32 32 WSW 12 19 29.81 1010 10 16 0.00 0.00
11:53 pm 23:53 Clear 57 13.9 28 -2.2 33 33 WSW 13 20 29.81 1009 10 16 0.00 0.00

Powered by AerisWeather